Theta_e
311 314 318 330 338 336 342 340 335 327 326 324 323 320 320 320 322 322 334 330 335 329 324 322 322 322 323 324 327 328 329 331 332 336 336 335 332 330 330 330 329 328 328 328 328 328 330 336 334
314 318 325 334 341 343 341 336 334 327 325 322 320 318 320 323 326 325 331 333 334 332 326 326 326 325 325 325 327 329 333 334 337 339 338 337 335 333 332 332 332 331 331 330 330 329 328 332 336
319 325 333 337 336 340 338 334 333 328 324 323 323 322 323 323 326 324 327 329 330 330 329 328 328 327 327 325 327 331 332 333 339 338 337 335 335 334 333 332 333 333 333 333 331 331 330 328 333
327 332 333 332 333 332 334 332 330 326 324 323 322 325 323 324 326 326 327 329 328 328 329 330 329 327 323 322 322 326 334 337 339 339 337 336 334 333 333 334 333 333 332 332 332 332 331 330 329
332 327 332 333 334 332 331 331 329 328 325 322 323 326 323 324 326 326 327 328 329 330 332 331 325 322 322 321 320 320 319 320 327 332 336 334 332 331 332 332 331 331 331 332 332 333 331 331 328
330 324 329 330 330 331 329 328 330 328 325 321 324 323 322 325 326 325 324 326 325 329 328 324 323 322 322 322 321 322 322 323 323 321 325 329 330 333 331 331 330 330 330 331 332 332 333 330 330
329 329 331 332 333 331 331 330 328 329 329 323 323 324 324 322 325 324 323 324 324 324 324 323 323 322 323 322 322 324 325 326 326 325 324 324 325 328 328 329 330 330 330 331 330 331 332 331 330
326 326 330 330 331 331 328 325 326 329 329 323 324 327 325 322 324 324 323 323 323 323 323 322 323 323 323 325 327 328 327 326 326 325 325 325 325 324 327 328 328 328 328 329 329 329 330 330 328
328 331 333 331 330 330 327 324 324 326 327 325 323 324 325 324 323 323 323 323 322 322 322 323 323 324 327 328 328 329 329 328 327 326 327 326 326 325 323 324 326 328 329 329 329 330 329 329 328
329 330 334 332 329 327 326 324 322 324 323 325 326 325 325 323 322 320 321 321 321 321 322 323 324 326 328 328 328 329 328 328 331 329 327 327 326 324 323 324 326 326 327 329 329 330 330 329 328
328 331 331 329 327 327 328 326 324 323 323 324 324 325 323 322 321 320 321 320 321 322 322 323 325 328 328 326 329 329 328 327 327 328 327 326 324 325 323 323 324 324 323 325 326 327 330 329 329
330 330 330 329 328 327 327 327 326 324 323 323 323 324 323 322 320 319 319 321 322 323 324 327 328 328 326 327 327 326 326 327 328 327 326 326 326 326 324 324 324 324 323 324 324 325 327 328 329
330 330 330 329 327 327 326 326 325 325 323 322 322 323 323 322 320 320 320 322 323 325 327 327 327 326 327 327 327 328 327 327 327 327 327 327 326 326 326 324 325 324 323 323 324 325 326 328 327
325 328 329 329 328 327 327 327 325 326 324 321 323 322 321 321 320 319 321 322 324 325 327 327 326 326 327 327 328 328 329 329 329 328 327 326 326 328 326 325 324 324 323 324 324 324 325 327 326
320 321 323 325 325 325 326 325 326 324 323 321 320 321 320 320 320 320 323 322 323 325 327 327 326 327 327 329 329 328 329 329 329 329 328 327 328 327 326 324 325 325 325 323 324 324 324 326 325
320 319 321 322 323 324 323 327 325 323 323 323 322 321 319 319 320 321 323 323 323 326 326 326 326 327 328 329 329 330 330 330 330 329 329 329 327 327 326 326 326 325 325 324 323 324 325 326 326
318 321 321 322 322 324 324 326 325 324 323 323 322 323 321 319 318 321 323 323 323 326 326 326 327 327 329 329 330 330 330 330 329 328 329 328 327 325 325 325 326 325 325 323 323 325 325 326 326
322 320 322 323 324 324 324 324 324 325 324 323 322 322 322 321 320 323 324 323 324 324 325 326 327 328 329 330 331 330 331 331 328 327 328 328 327 326 325 326 326 325 323 323 324 324 327 327 326
322 321 322 323 323 325 325 326 326 326 323 322 322 322 323 322 323 325 324 324 324 324 324 325 328 329 330 332 332 332 331 331 329 328 328 328 328 328 325 327 326 325 324 323 324 325 326 326 326
318 321 322 322 323 323 324 326 326 327 326 324 325 323 322 324 325 325 324 323 323 324 324 328 329 330 333 332 330 331 331 330 330 328 328 329 327 326 328 327 327 325 325 323 324 324 326 326 327
318 320 323 323 322 322 324 327 328 328 327 326 325 323 324 324 325 326 324 323 323 323 325 328 330 331 333 331 331 329 328 329 329 328 327 328 326 327 328 327 325 325 325 324 324 325 324 328 327
321 320 322 324 324 325 325 328 325 326 325 324 323 322 324 324 324 326 323 322 323 325 325 329 330 332 333 331 330 330 328 328 328 329 327 327 328 329 327 328 327 326 325 323 325 326 324 327 327
321 321 322 325 325 324 325 325 324 324 325 324 322 323 323 323 324 326 324 323 326 323 327 330 330 332 332 331 331 330 330 329 328 328 328 328 328 328 329 328 328 327 326 323 324 326 326 326 326
321 322 322 323 324 326 325 325 327 324 326 325 325 323 324 324 324 325 325 325 325 324 329 330 330 332 332 329 330 329 327 328 328 328 329 328 329 329 329 328 328 327 326 324 325 325 326 327 328
320 320 323 324 326 328 324 327 327 325 325 323 327 327 325 325 326 326 326 324 324 326 328 330 330 330 330 330 329 329 328 327 328 329 329 329 329 330 330 329 328 325 326 326 326 327 326 327 327
316 319 324 326 328 327 325 328 326 323 324 324 327 326 326 326 325 326 325 324 323 325 328 330 329 329 329 329 329 328 327 326 327 330 330 329 330 330 329 330 329 328 326 327 327 327 327 328 327
315 316 317 322 326 325 325 326 327 324 329 328 327 327 327 325 325 326 323 322 322 326 327 329 329 328 329 329 329 329 328 325 326 326 329 329 330 330 329 330 329 328 328 327 327 328 328 328 329
315 318 320 321 326 328 327 328 328 324 330 329 329 327 326 324 324 325 324 321 322 326 327 327 329 327 329 329 329 330 329 330 329 327 329 329 329 329 329 330 330 329 328 328 328 328 328 329 330
314 315 317 321 322 326 326 327 322 322 323 331 328 327 325 325 324 325 323 322 323 326 324 327 328 328 328 328 329 330 330 330 329 326 329 328 329 329 329 329 328 329 329 328 328 328 329 329 328
315 315 316 323 325 323 324 325 323 323 325 329 329 327 325 324 324 324 321 321 322 323 324 327 326 327 328 327 329 329 330 329 329 326 327 329 329 329 329 328 328 329 329 328 329 329 329 328 327
Wind_Speed
7 4 2 2 2 3 3 6 4 6 4 3 2 6 7 2 3 3 18 18 26 31 29 26 21 18 16 15 14 13 12 13 13 13 13 13 12 11 10 8 7 6 6 7 8 8 8 7 7
7 6 1 1 2 1 5 6 2 5 5 5 9 6 4 0 2 7 15 24 24 26 26 22 19 18 16 14 12 12 12 12 14 14 14 15 14 13 13 12 10 9 8 9 9 10 10 9 8
7 4 2 3 3 5 5 5 5 6 8 6 4 3 6 7 2 16 11 26 25 24 23 22 20 17 14 12 11 11 12 12 15 15 15 14 15 16 16 15 13 12 12 12 11 11 11 11 10
4 3 2 2 9 8 5 12 9 6 3 3 4 7 3 7 19 15 27 26 25 25 24 22 20 18 14 11 9 9 11 14 15 16 15 15 16 17 18 18 16 16 16 15 15 13 13 12 13
1 3 2 4 7 7 7 11 8 4 4 5 2 3 2 2 13 26 28 27 26 24 23 22 18 16 12 9 7 7 8 12 16 17 15 16 17 18 17 18 18 18 18 18 17 17 15 15 14
2 2 1 4 7 6 7 7 8 5 3 5 5 8 6 14 29 27 24 25 22 25 25 21 16 13 9 6 7 8 8 8 9 12 16 18 17 16 17 18 19 19 20 20 19 18 18 18 17
4 2 5 5 13 12 4 6 5 7 3 2 9 7 1 6 29 27 23 23 21 19 21 17 15 10 8 9 8 10 9 9 10 10 9 12 14 16 17 19 20 20 20 20 20 19 20 19 19
4 4 4 5 6 16 6 7 6 0 8 2 11 8 5 9 27 25 23 23 21 21 18 16 13 12 11 9 7 8 11 13 13 11 10 8 9 11 12 15 17 18 21 22 23 22 23 22 20
4 2 7 7 6 12 8 4 6 4 3 3 2 9 7 30 26 26 24 23 22 21 19 18 15 14 11 5 4 5 10 11 13 13 11 10 12 12 11 11 11 13 17 18 21 22 23 21 20
6 5 12 12 10 11 14 5 5 3 7 2 3 3 18 30 29 22 16 21 18 19 16 19 18 14 9 2 3 2 5 10 16 14 12 12 13 11 12 12 12 13 14 14 18 21 20 21 23
6 10 23 16 16 16 19 14 5 5 7 5 9 8 9 15 18 18 22 19 21 22 23 19 15 10 3 5 4 5 8 6 12 13 11 12 11 11 12 11 12 14 14 16 14 16 18 23 23
6 13 19 22 21 16 16 18 8 7 9 7 12 16 13 13 13 15 18 18 26 26 21 18 13 6 3 7 6 6 6 8 11 13 15 15 14 14 14 14 13 14 14 13 13 14 19 21 21
11 21 21 21 20 19 17 17 11 7 10 8 11 14 18 16 14 24 24 27 31 29 25 19 11 2 3 5 6 8 9 11 13 16 14 15 16 18 17 15 15 14 13 14 14 14 19 21 22
14 15 19 20 21 17 14 18 5 10 8 9 12 16 17 16 19 14 24 30 32 27 24 19 9 3 2 4 7 9 11 12 14 14 15 15 18 20 18 16 15 14 13 13 14 16 20 23 21
10 12 12 17 17 19 14 17 7 11 7 12 12 14 14 17 17 20 32 35 35 28 24 17 10 6 4 2 5 9 11 12 16 16 16 16 15 9 14 14 14 13 13 14 15 16 18 20 20
6 5 10 10 14 17 7 21 15 12 9 12 11 9 12 15 16 23 35 35 31 28 23 18 11 8 3 2 9 9 10 10 12 14 14 15 13 12 14 15 13 12 13 14 17 17 17 21 20
4 14 18 19 12 13 8 18 12 10 9 12 10 10 11 14 6 17 29 36 32 27 23 17 12 7 3 4 7 9 9 8 9 10 10 12 15 14 15 15 13 10 9 15 17 16 14 17 17
11 8 7 18 17 8 11 13 13 21 17 14 11 9 9 8 10 21 31 34 30 25 19 15 9 6 2 4 7 6 7 8 7 7 8 11 11 11 11 13 13 10 11 14 15 15 11 14 15
11 6 11 18 17 6 10 15 16 11 6 8 10 11 11 6 7 21 29 32 28 23 20 14 12 8 1 3 5 5 6 8 7 7 10 8 8 11 11 9 9 11 15 17 16 14 12 11 14
13 13 19 20 18 5 14 22 20 8 7 10 13 9 6 7 12 12 21 26 28 24 18 15 12 8 3 2 3 6 10 7 6 7 9 7 3 8 6 7 9 13 16 18 18 17 12 13 19
16 18 20 19 14 9 8 11 13 10 8 6 7 8 10 18 17 13 14 22 27 23 19 16 14 7 4 1 2 6 4 4 3 5 10 2 2 4 4 3 7 13 16 19 20 18 17 14 21
18 21 19 20 11 8 7 6 6 6 7 5 7 6 10 14 14 14 11 16 25 22 19 17 13 8 5 1 3 5 5 4 3 6 7 4 3 5 6 6 10 12 16 19 20 18 18 23 16
21 14 15 14 13 3 20 2 8 4 5 9 6 8 6 12 17 16 14 20 24 24 20 19 12 8 5 3 2 5 6 3 3 3 4 4 3 7 8 8 11 12 16 19 21 20 19 22 26
23 7 8 9 7 8 15 5 14 5 7 4 0 7 11 11 10 10 17 23 23 23 23 18 12 8 3 2 3 6 4 6 5 5 5 5 1 5 6 10 9 13 15 18 20 21 21 22 25
13 9 5 4 6 8 8 5 13 8 8 8 9 8 10 12 14 15 13 10 20 25 22 19 14 10 6 4 3 4 7 6 6 5 5 4 1 4 3 9 11 15 15 17 19 20 20 21 20
24 14 6 7 4 4 7 7 11 8 8 10 11 13 12 12 12 14 13 13 20 25 23 20 17 13 10 7 3 4 5 5 5 4 2 5 6 6 5 9 13 14 14 16 19 20 19 20 18
10 17 13 3 2 2 5 5 6 5 6 12 10 13 13 12 12 14 10 16 22 26 24 21 19 14 14 8 4 3 4 5 5 6 5 6 6 5 7 9 15 15 17 19 19 19 18 21 19
21 5 8 0 8 7 4 3 6 5 8 10 11 11 11 9 11 11 12 15 24 28 23 18 21 17 15 10 6 3 4 3 4 5 7 8 7 6 10 11 14 17 20 20 21 19 19 19 19
7 19 8 7 7 8 5 9 7 11 12 15 15 14 15 14 13 13 11 17 26 27 21 19 21 19 15 11 9 5 4 3 3 5 8 8 8 7 9 11 15 18 22 22 21 20 21 21 20
18 9 21 11 7 3 6 9 6 9 16 17 14 15 12 14 14 12 12 16 21 25 22 21 22 19 17 14 12 7 7 5 6 8 9 8 7 7 10 11 14 17 19 21 23 23 21 24 25
Wind_Direction
204 164 106 29 31 68 262 261 266 282 190 230 145 136 150 75 162 217 158 175 172 173 178 181 186 190 196 202 210 214 222 224 219 216 222 226 228 232 233 232 235 239 244 251 255 252 252 254 257
182 131 61 358 104 14 264 246 272 279 244 148 104 117 95 189 120 136 143 162 168 174 176 184 189 192 196 203 211 223 228 233 235 224 226 229 229 239 239 239 237 237 240 245 250 253 251 251 257
166 142 82 166 186 200 217 253 325 269 231 191 106 38 130 167 52 150 173 163 167 173 185 189 185 187 191 202 217 223 235 242 238 239 236 237 235 238 239 248 245 245 246 247 248 248 249 245 250
167 60 320 195 240 257 239 277 228 293 349 279 132 71 52 246 157 167 157 163 168 178 184 181 179 183 196 213 220 234 233 242 243 238 239 235 240 243 244 243 244 249 248 249 248 242 243 245 242
153 73 276 260 261 266 280 258 270 322 285 101 144 173 98 213 175 156 156 169 174 179 178 176 183 192 200 202 209 229 243 245 244 246 241 240 243 246 246 247 248 248 249 248 246 245 237 234 235
12 102 334 264 264 276 299 273 5 304 271 159 90 137 185 166 152 160 166 166 165 167 175 181 192 197 196 223 234 232 229 240 247 249 249 249 245 245 248 249 251 251 249 247 247 243 238 230 228
137 85 234 263 283 300 253 268 281 245 233 237 152 138 251 190 164 162 159 162 164 177 184 190 191 200 207 220 219 238 240 248 255 254 253 251 248 248 251 252 252 252 252 249 246 247 242 231 226
139 124 283 249 277 285 284 331 295 171 247 326 148 168 191 216 173 168 164 171 184 188 197 193 190 195 202 200 224 253 257 243 242 246 254 258 260 263 258 253 251 252 253 252 248 243 242 232 222
121 132 261 246 231 262 295 294 283 275 273 238 227 157 205 170 168 163 167 183 191 188 192 193 188 184 179 198 232 272 269 255 250 243 247 255 262 261 273 255 252 265 255 252 248 239 236 228 216
168 157 239 236 258 270 278 255 254 298 313 359 55 30 137 151 159 165 182 205 203 196 178 175 175 170 178 184 213 269 244 256 249 241 242 254 260 278 286 270 266 266 263 261 250 237 232 219 213
203 214 241 265 259 261 273 285 261 288 311 205 191 166 139 152 171 177 198 208 205 184 164 166 170 177 179 8 349 294 284 268 233 236 260 266 261 273 272 266 263 264 261 254 259 238 220 211 212
266 249 254 259 265 267 265 273 253 245 247 247 184 166 163 174 183 191 198 172 163 163 166 169 167 172 346 14 340 306 291 268 249 257 272 271 274 271 270 264 260 259 255 251 246 236 220 211 214
246 250 254 257 264 267 271 259 240 247 260 207 179 167 179 183 193 200 188 171 165 163 164 165 167 158 27 348 302 275 301 288 282 273 268 272 274 266 261 267 257 265 259 246 239 234 217 208 216
247 243 255 264 266 271 270 269 230 259 260 198 165 190 189 188 197 175 168 167 169 166 166 162 152 106 70 292 279 288 287 293 289 282 274 272 272 270 253 264 258 264 261 240 239 231 216 210 216
256 272 278 268 267 270 287 275 236 244 220 215 191 202 197 204 190 183 174 173 173 168 162 156 140 142 155 228 294 291 298 289 283 280 282 272 278 254 242 257 262 262 260 243 234 222 212 211 215
298 289 265 261 269 267 207 270 271 255 217 224 225 223 209 213 202 185 180 175 167 159 159 145 137 134 154 292 310 306 310 291 291 287 278 272 262 253 250 250 265 265 255 235 214 212 210 217 222
225 255 263 271 254 266 221 269 267 263 219 223 227 236 213 223 187 178 171 168 162 156 149 141 142 133 147 307 311 309 298 290 302 295 282 274 255 253 248 253 259 257 240 201 201 203 212 214 220
226 240 245 254 252 251 268 270 275 274 234 221 228 240 223 209 204 161 164 159 151 149 146 145 140 128 109 322 326 307 276 281 299 321 301 280 261 251 242 248 245 229 197 186 191 195 192 201 211
243 250 252 257 262 250 254 264 260 267 248 231 241 247 234 183 146 153 156 157 149 150 150 147 146 137 93 348 335 324 289 283 289 322 325 307 268 243 234 244 229 206 195 187 188 190 186 182 175
225 247 255 270 271 268 279 273 255 245 229 223 225 249 201 151 144 147 148 150 153 154 151 147 145 139 108 2 321 309 303 285 295 324 332 326 259 200 227 251 204 198 191 187 193 191 177 182 174
224 227 245 251 275 268 272 280 271 274 237 275 255 240 173 166 154 157 157 155 155 154 154 153 147 137 141 329 327 339 314 311 299 308 341 321 162 192 225 236 194 187 191 188 191 191 184 163 171
233 224 237 248 258 258 159 268 290 247 239 233 270 193 167 170 153 152 149 155 158 157 155 150 144 140 174 224 326 348 320 326 330 315 346 355 193 204 213 230 189 195 193 190 188 191 178 176 156
236 222 237 252 246 237 276 215 259 285 280 282 232 178 174 164 151 154 157 159 160 158 154 148 141 149 182 199 316 330 334 9 39 36 3 355 212 226 228 215 194 185 190 190 190 190 182 183 158
236 250 250 261 241 242 249 179 278 225 221 246 126 174 150 145 134 134 151 156 159 159 152 150 147 159 189 171 5 358 60 90 72 21 1 350 297 214 195 188 183 181 179 186 192 193 187 186 174
208 194 243 266 210 225 226 225 252 252 236 202 169 157 146 147 146 153 155 155 157 158 155 155 159 166 177 157 17 62 95 90 49 22 12 354 120 152 159 172 171 179 173 179 186 184 190 186 183
221 199 194 198 200 199 224 212 247 221 258 184 156 148 146 151 157 157 162 159 161 162 161 162 170 171 168 155 85 98 94 75 59 29 354 53 103 102 138 176 180 176 175 175 177 181 184 180 183
205 218 203 166 223 85 215 268 355 118 104 124 140 140 158 157 157 160 157 164 164 166 168 171 176 177 161 165 139 133 87 84 61 40 70 99 108 91 129 143 163 173 179 177 176 177 175 176 180
218 153 180 202 204 224 275 214 222 166 173 152 149 165 161 158 155 155 165 168 168 171 171 175 180 175 166 170 169 142 95 77 65 61 104 111 107 112 134 140 147 160 168 170 174 175 172 167 169
180 218 223 177 180 192 208 247 210 194 177 169 177 172 168 166 163 164 169 172 171 170 168 169 176 171 171 177 176 148 123 78 106 93 121 122 107 111 135 139 144 154 161 166 166 162 165 170 164
210 184 210 221 217 207 172 246 252 213 167 169 173 173 168 166 164 163 166 162 162 169 167 167 171 169 167 165 162 150 127 108 123 104 121 137 121 120 129 134 136 145 152 161 161 157 161 158 152